Current weather by "City, St" or "zip code"  
 
Advertise Here

Current Conditions: Nogales, Nogales International Airport, AZ

Fair


95.0 F

Last Updated on Aug 4 2020, 2:54 pm MST
Humidity: 29%
Wind Speed: W 10.4 G 17.3 mph
Barometer 30.10 in
Dewpoint: 57.9 F
Visibility: 10.00 mi
Precip: --
Heat Index: 94 F
Wind Chill: NA
Current conditions at:

Nogales, Nogales International Airport, AZ (KOLS)

Lat: 31.42083 Lon: 110.84583

Local Radar Image active severe weather and emergency alerts image image weather storm and storm spotter reports image weather observation monitoring service image
Local
Radar
Active
Alerts
Storm Reports Obs
Monitoring

Sign-up For Email & Text Message Weather Alert Notification Services


Advertise Here

Observation History for Nogales, Nogales International Airport, AZ


Time Wind
(mph)
Vis
(mi)
Weather Precip (in) Temperature (F) Relative
Humidity
Wind
Chill
(F)
Heat
Index
(F)
Pressure
Air Dwpt altimeter
(in)
sea level
(mb)
Rmks
2:54 pm MST W 10.4 G 17.3 10.00 Fair -- 95.0 57.9 29% NA 94 30.10 1011.3
1:54 pm MST SW 9.2 10.00 Fair -- 96.0 55.9 26% NA 94 30.12 1012.0
12:54 pm MST SW 8.1 10.00 Fair -- 96.0 55.0 25% NA 94 30.13 1012.5
11:54 am MST 3.5 10.00 Fair -- 93.0 55.9 29% NA 91 30.16 1013.5
10:54 am MST 4.6 10.00 Fair -- 90.0 57.0 33% NA 89 30.17 1014.2
9:54 am MST N 0.0 10.00 Fair -- 87.0 55.0 34% NA 85 30.18 1014.4
8:54 am MST S 3.5 10.00 Fair -- 82.0 63.0 53% NA 83 30.17 1014.4
7:54 am MST N 0.0 10.00 Fair -- 76.0 61.0 60% NA NA 30.17 1014.6
6:54 am MST N 0.0 10.00 Fair -- 71.0 60.1 68% NA NA 30.16 1014.5
5:54 am MST NE 3.5 10.00 Fair -- 67.0 60.1 79% NA NA 30.15 1014.4
4:54 am MST NE 4.6 10.00 Fair -- 68.0 61.0 78% NA NA 30.14 1014.3
3:54 am MST E 5.8 10.00 Fair -- 69.0 63.0 81% NA NA 30.13 1013.5
2:54 am MST N 3.5 10.00 Fair -- 72.0 62.1 71% NA NA 30.13 1012.8
1:54 am MST N 0.0 10.00 Partly Cloudy -- 72.0 61.0 68% NA NA 30.15 1012.9
12:54 am MST N 3.5 10.00 Fair -- 71.0 63.0 76% NA NA 30.15 1013.1
11:54 pm MST N 0.0 10.00 Fair -- 73.0 61.0 66% NA NA 30.17 1013.9
10:54 pm MST N 0.0 10.00 Fair -- 72.0 62.1 71% NA NA 30.16 1014.0
9:54 pm MST E 3.5 10.00 Fair -- 74.0 61.0 64% NA NA 30.16 1014.1
8:54 pm MST S 4.6 10.00 Fair -- 77.0 60.1 56% NA NA 30.17 1014.3
7:54 pm MST SW 5.8 10.00 Fair -- 79.0 60.1 52% NA NA 30.16 1014.1
6:54 pm MST SE 4.6 10.00 Fair -- 81.0 61.0 51% NA 82 30.13 1013.5
5:54 pm MST E 8.1 10.00 Fair Trace 83.0 61.0 48% NA 83 30.11 1012.9
4:54 pm MST N 0.0 10.00 Light Rain Trace 80.0 64.0 58% NA 82 30.09 1012.5
3:54 pm MST NE 18.4 G 27.6 10.00 Thunderstorm in Vicinity -- 83.0 61.0 48% NA 83 30.13 1013.5

Regional Weather Observation


Pioneer Airfield, AZ (KALK)

Fair
93.0 F

Fort Huachuca, Libby AAF Ft Huachuca, AZ (KFHU)

Mostly Cloudy
94.0 F

Tucson, Tucson International Airport, AZ (KTUS)

Fair
103.0 F

Tucson Ryan Field Airport, AZ (KRYN)

Fair and Windy
104.0 F

Davis-Monthan Air Force Base, AZ (KDMA)

Fair
104.0 F

Casa Grande, Casa Grande Municipal Airport, AZ (KCGZ)

Fair
108.0 F